User: anonymous   Login
Location: Canyam�s
(41.5996°N, 2.4450°E)
Time: 12:37:53
(UTC+00:00)
Language:

Cosmos 1908 - Orbit

View from above orbital plane
View from above orbital plane
View from above satellite
View from above satellite

Ground track
Ground track

The orbit data is extracted from the following two-line orbital elements,

1 18748U 88001A   21163.15656497  .00000294  00000-0  13883-4 0  9993
2 18748  82.4728  61.7900 0011684 253.9193 106.0753 15.15387293826143
Epoch (UTC): 12 June 2021 03:45:27
Eccentricity: 0.0011684
inclination: 82.4728°
perigee height: 512 km
apogee height: 528 km
right ascension of ascending node: 61.7900°
argument of perigee: 253.9193°
revolutions per day: 15.15387293
mean anomaly at epoch: 106.0753°
orbit number at epoch: 82614

The dashed part of the orbit path shows where the satellite is in the earth's shadow,  

DLR